sat.trackr.live / text

‹ back to catalog

ONEWEB-0082

NORAD 45452 · 2020-020AE

PAYLOAD ACTIVE UNKNOWN

§ Identity

Operator
Country
UK
Launch date
2020-03-21
Launch site
TYMSC
Launch vehicle
Mass (kg)
RCS (m²)

Purposes: comms

External: N2YO · Heavens-Above · Gunter

§ Orbital elements

Epoch: 2026-09-12T23:57:12.396096Z

Period
109.81 min
Inclination
87.8973°
Eccentricity
0.0002245
Mean motion
13.11414908 rev/d
Perigee alt
1,216.0 km
Apogee alt
1,219.4 km
Semi-major
7,595.8 km
B*
8.8352e-4
RAAN
3.6055°
Arg perigee
104.7834°
Mean anomaly
255.3543°
Rev number
31,418

§ Raw data

ONEWEB-00821 45452U 20020AE  26255.99806014  .00000326  00000+0  88352-3 0  99902 45452  87.8973   3.6055 0002245 104.7834 255.3543 13.11414908314189

JSON: /api/v1/satellites/45452 · /tle

For live sub-satellite position, see the globe view (requires WebGL).

§ Visibility from observer

Set your observer location to see the next 7 days of passes ≥ 10°. The values pass through the URL so the page stays shareable.

No JS? Fill the form by hand. The geolocation button needs JavaScript.